{"data":{"norad_id":65831,"intl_designator":"2025-221J","name":"STARLINK-35337","alt_names":[],"object_type":"PAYLOAD","status":"ACTIVE","operator":null,"country":"US","launch_date":"2025-09-29","launch_site_code":"AFWTR","launch_vehicle":null,"mission":null,"orbit_class":"UNKNOWN","rcs_meters":null,"size_class":null,"mass_kg":null,"dimensions":null,"purposes":["comms"],"wikipedia_slug":null,"has_3d_model":false,"image_url":null,"decayed_at":null,"tle_current":{"epoch":"2026-09-20T00:24:16.813728Z","epoch_age_seconds":147921,"freshness":"FRESH","line1":"1 65831U 25221J   26263.01686127  .00012896  00000+0  39207-3 0  9994","line2":"2 65831  53.1583 261.6095 0003623 102.6097 257.5311 15.34405467 55898","mean_motion":15.34405467,"eccentricity":0.0003623,"inclination_deg":53.1583,"raan_deg":261.6095,"arg_perigee_deg":102.6097,"mean_anomaly_deg":257.5311,"bstar":0.00039207,"rev_number":5589,"period_min":93.847423707074,"perigee_km":460.20856064723,"apogee_km":465.16542171124,"semimajor_km":6840.8239911792,"source":"CELESTRAK","updated_at":"2026-09-21T09:00:35.720579Z"}}}